Content
SEND FEEDBACK

Daily
Averages
Monthly
Summary
France

LE HAVRE, FRANCE


Home > Europe > France
Elevation: 338 feet     Latitude: 49 31N     Longitude: 000 04E

WEATHER
 
SELECT A DAY
Number of Records: 175,618;   Date Range: 3/4/97 - 7/11/14
 
SHARE

PRINT THIS DATA

[ ← Previous Day ]
WEATHER ALMANAC - FEBRUARY 5, 2013
[ Next Day → ]
[ °C ]   °F
Weather ElementAverageHighLow
Temperature41.4 °F44.6 °F (12:30 am)37.4 °F (6:00 am)
Dewpoint35.7 °F41 °F (12:30 am)30.2 °F (4:00 pm)
Humidity80.5 %93 % (6:00 am)61 % (4:00 pm)
Barometer29.70 in29.98 in (12:30 am)29.47 in (11:30 pm)
Wind Speed23.4 mph35.7 mph (5:30 am)
Wind Gust55.2 mph (5:30 am)
Weather ElementAverage
Visibility5.9 mi
Wind DirectionWSW (257 °)

Weather ElementTotal
Precipitation---
Heating Degree Days24 (Base 65)
Averaged from 47 records on February 5, 2013
WEATHER CONDITIONS BREAKOUT
WIND DIRECTION BREAKOUT
WEATHER BY HOUR - FEBRUARY 5, 2013
[ °C ]   °F
Local TimeTemperatureDewpointHumidityBarometerVisibilityWind DirectionWind SpeedGust SpeedPrecipitationEventsConditions
12:30 AM44.6 °F41.0 °F87 %29.98 in6.2 miWSW (240°)17.3 mphOvercast
1:00 AM44.6 °F39.2 °F81 %29.95 in6.2 miWSW (240°)21.9 mphMostly Cloudy
1:30 AM44.6 °F41.0 °F87 %29.95 in6.2 miWSW (240°)19.6 mphMostly Cloudy
2:00 AM44.6 °F41.0 °F87 %29.92 in6.2 miWSW (240°)23.0 mphRainLight Rain
2:30 AM44.6 °F41.0 °F87 %29.89 in6.2 miSW (230°)20.7 mphMostly Cloudy
3:00 AM44.6 °F39.2 °F81 %29.86 in6.2 miWSW (240°)25.3 mphMostly Cloudy
3:30 AM44.6 °F39.2 °F81 %29.83 in6.2 miWSW (240°)28.8 mphMostly Cloudy
4:00 AM44.6 °F39.2 °F81 %29.80 in6.2 miWSW (240°)27.6 mph
4:30 AM44.6 °F41.0 °F87 %29.80 in1.6 miWSW (250°)28.8 mphRainRain
5:00 AM44.6 °F37.4 °F76 %29.77 in6.2 miWest (270°)32.2 mph46.0 mphRainLight Rain
5:30 AM41.0 °F37.4 °F87 %29.77 in1.2 miWest (270°)35.7 mph55.2 mphRainRain
6:00 AM37.4 °F35.6 °F93 %29.80 in1.2 miNW (310°)31.1 mph46.0 mphRainRain
6:30 AM39.2 °F35.6 °F87 %29.80 in6.2 miWNW (300°)20.7 mph36.8 mphMostly Cloudy
7:00 AM41.0 °F35.6 °F81 %29.77 in6.2 miWest (270°)23.0 mphMostly Cloudy
7:30 AM39.2 °F33.8 °F81 %29.77 in6.2 miWNW (290°)25.3 mph40.3 mphRainLight Rain
8:00 AM39.2 °F35.6 °F87 %29.77 in6.2 miWest (270°)20.7 mphMostly Cloudy
8:30 AM41.0 °F33.8 °F76 %29.74 in6.2 miWest (260°)19.6 mphMostly Cloudy
9:00 AM41.0 °F33.8 °F76 %29.74 in6.2 miWest (270°)21.9 mphOvercast
9:30 AM41.0 °F33.8 °F76 %29.74 in6.2 miWSW (250°)25.3 mphMostly Cloudy
10:00 AM39.2 °F33.8 °F81 %29.74 in6.2 miWSW (250°)23.0 mphMostly Cloudy
10:30 AM41.0 °F35.6 °F81 %29.71 in6.2 miWSW (250°)25.3 mphOvercast
11:00 AM41.0 °F35.6 °F81 %29.71 in6.2 miWSW (250°)18.4 mphMostly Cloudy
11:30 AM41.0 °F35.6 °F81 %29.71 in6.2 miSW (230°)16.1 mph28.8 mphOvercast
12:00 PM41.0 °F35.6 °F81 %29.71 in6.2 miWSW (240°)21.9 mphMostly Cloudy
12:30 PM41.0 °F33.8 °F76 %29.68 in6.2 miWSW (250°)24.2 mphMostly Cloudy
1:00 PM41.0 °F35.6 °F81 %29.65 in6.2 miWSW (250°)23.0 mphMostly Cloudy
1:30 PM41.0 °F35.6 °F81 %29.65 in6.2 miWSW (250°)21.9 mphMostly Cloudy
2:00 PM41.0 °F32.0 °F70 %29.62 in6.2 miWest (270°)25.3 mphMostly Cloudy
2:30 PM41.0 °F33.8 °F76 %29.62 in6.2 miWest (270°)25.3 mphMostly Cloudy
3:00 PM41.0 °F33.8 °F76 %29.62 in6.2 miWest (260°)25.3 mphMostly Cloudy
3:30 PM41.0 °F33.8 °F76 %29.62 in6.2 miWest (260°)24.2 mphMostly Cloudy
4:00 PM42.8 °F30.2 °F61 %29.62 in6.2 miWest (280°)26.5 mph39.1 mphPartly Cloudy
4:30 PM41.0 °F30.2 °F65 %29.62 in6.2 miWNW (300°)28.8 mph42.6 mphOvercast
5:00 PM37.4 °F30.2 °F75 %29.59 in6.2 miWNW (290°)15.0 mphMostly Cloudy
5:30 PM37.4 °F33.8 °F87 %29.62 in6.2 miWest (280°)21.9 mphMostly Cloudy
6:00 PM39.2 °F32.0 °F75 %29.59 in6.2 miWNW (290°)20.7 mph33.4 mphPartly Cloudy
6:30 PM39.2 °F33.8 °F81 %29.59 in6.2 miWest (260°)19.6 mphMostly Cloudy
7:00 PM41.0 °F33.8 °F76 %29.59 in6.2 miWest (280°)23.0 mph35.7 mphMostly Cloudy
7:30 PM42.8 °F32.0 °F66 %29.59 in6.2 miWest (270°)25.3 mphMostly Cloudy
8:00 PM41.0 °F35.6 °F81 %29.59 in6.2 miWSW (240°)21.9 mphMostly Cloudy
8:30 PM39.2 °F35.6 °F87 %29.56 in6.2 miSW (230°)18.4 mphMostly Cloudy
9:00 PM41.0 °F35.6 °F81 %29.56 in6.2 miSW (230°)19.6 mphOvercast
9:30 PM39.2 °F35.6 °F87 %29.56 in6.2 miSW (230°)20.7 mphOvercast
10:00 PM41.0 °F35.6 °F81 %29.50 in6.2 miSW (220°)19.6 mphOvercast
10:30 PM41.0 °F35.6 °F81 %29.50 in6.2 miSW (230°)21.9 mphOvercast
11:00 PM42.8 °F39.2 °F87 %29.50 in6.2 miWSW (240°)25.3 mphRainLight Rain
11:30 PM42.8 °F41.0 °F93 %29.47 in6.2 miWest (260°)28.8 mph41.4 mphRainLight Rain
Hourly data recorded from LFOH, located miles away from Le Havre, France







STORIES FROM OUR PARTNERS